Time,TemperatureF,DewpointF,PressureIn,WindDirection,WindDirectionDegrees,WindSpeedMPH,WindSpeedGustMPH,Humidity,HourlyPrecipIn,Conditions,Clouds,dailyrainin,SoftwareType,DateUTC
2013-03-12 00:12:00,52.2,51.0,29.82,South,174,2.0,4.0,95,0.05,,,0.02,weatherlink.com 1.10,2013-03-12 04:12:00,
2013-03-12 00:26:00,52.1,51.0,29.81,SSE,161,1.0,7.0,95,0.04,,,0.03,weatherlink.com 1.10,2013-03-12 04:26:00,
2013-03-12 00:41:00,52.0,51.0,29.82,SW,235,3.0,7.0,95,0.06,,,0.05,weatherlink.com 1.10,2013-03-12 04:41:00,
2013-03-12 00:56:00,52.0,51.0,29.80,SSE,166,2.0,3.0,95,0.06,,,0.06,weatherlink.com 1.10,2013-03-12 04:56:00,
2013-03-12 01:11:00,51.9,51.0,29.80,South,188,3.0,6.0,95,0.04,,,0.06,weatherlink.com 1.10,2013-03-12 05:11:00,
2013-03-12 01:26:00,51.8,51.0,29.79,SSE,154,1.0,6.0,95,0.03,,,0.06,weatherlink.com 1.10,2013-03-12 05:26:00,
2013-03-12 01:41:00,51.7,50.0,29.79,SSE,163,0.0,4.0,95,0.01,,,0.06,weatherlink.com 1.10,2013-03-12 05:41:00,
2013-03-12 01:56:00,51.7,50.0,29.79,SW,226,0.0,2.0,95,0.01,,,0.07,weatherlink.com 1.10,2013-03-12 05:56:00,
2013-03-12 02:11:00,51.5,50.0,29.78,NNE,23,1.0,3.0,96,0.03,,,0.09,weatherlink.com 1.10,2013-03-12 06:11:00,
2013-03-12 02:26:00,51.4,50.0,29.80,North,360,7.0,9.0,96,0.04,,,0.10,weatherlink.com 1.10,2013-03-12 06:26:00,
2013-03-12 02:42:00,48.1,47.0,29.80,North,353,5.0,14.0,94,0.11,,,0.17,weatherlink.com 1.10,2013-03-12 06:42:00,
2013-03-12 03:12:00,46.3,45.0,29.81,NW,321,6.0,14.0,94,0.17,,,0.26,weatherlink.com 1.10,2013-03-12 07:12:00,
2013-03-12 03:27:00,45.6,44.0,29.81,North,10,12.0,20.0,94,0.17,,,0.27,weatherlink.com 1.10,2013-03-12 07:27:00,
2013-03-12 03:42:00,44.9,43.0,29.82,NNE,27,8.0,17.0,94,0.10,,,0.27,weatherlink.com 1.10,2013-03-12 07:42:00,
2013-03-12 03:57:00,44.1,43.0,29.82,NNE,14,9.0,19.0,94,0.05,,,0.27,weatherlink.com 1.10,2013-03-12 07:57:00,
2013-03-12 04:12:00,43.5,42.0,29.82,NW,321,12.0,23.0,94,0.01,,,0.27,weatherlink.com 1.10,2013-03-12 08:12:00,
2013-03-12 04:27:00,42.7,41.0,29.82,NNW,335,20.0,26.0,94,0.00,,,0.27,weatherlink.com 1.10,2013-03-12 08:27:00,
2013-03-12 04:42:00,42.2,41.0,29.83,NNW,331,12.0,20.0,94,0.00,,,0.27,weatherlink.com 1.10,2013-03-12 08:42:00,
2013-03-12 04:57:00,41.7,40.0,29.83,NNW,330,14.0,20.0,94,0.00,,,0.27,weatherlink.com 1.10,2013-03-12 08:57:00,
2013-03-12 05:12:00,41.7,40.0,29.84,North,351,14.0,18.0,94,0.00,,,0.27,weatherlink.com 1.10,2013-03-12 09:12:00,
2013-03-12 05:27:00,41.4,40.0,29.85,NNW,338,11.0,27.0,94,0.00,,,0.27,weatherlink.com 1.10,2013-03-12 09:27:00,
2013-03-12 05:42:00,41.1,40.0,29.85,North,351,17.0,21.0,94,0.00,,,0.27,weatherlink.com 1.10,2013-03-12 09:42:00,
2013-03-12 05:57:00,40.9,39.0,29.86,NNE,14,12.0,19.0,94,0.00,,,0.27,weatherlink.com 1.10,2013-03-12 09:57:00,
2013-03-12 06:12:00,40.5,39.0,29.86,NNW,336,14.0,22.0,94,0.00,,,0.27,weatherlink.com 1.10,2013-03-12 10:12:00,
2013-03-12 06:27:00,40.0,39.0,29.86,NNE,12,18.0,23.0,94,0.00,,,0.27,weatherlink.com 1.10,2013-03-12 10:27:00,
2013-03-12 06:42:00,39.7,38.0,29.87,North,355,13.0,27.0,94,0.00,,,0.27,weatherlink.com 1.10,2013-03-12 10:42:00,
2013-03-12 07:12:00,39.0,38.0,29.88,NW,326,13.0,26.0,94,0.00,,,0.27,weatherlink.com 1.10,2013-03-12 11:12:00,
2013-03-12 07:27:00,38.6,37.0,29.89,NE,34,13.0,22.0,93,0.00,,,0.27,weatherlink.com 1.10,2013-03-12 11:27:00,
2013-03-12 07:42:00,38.2,36.0,29.90,NNE,15,28.0,29.0,92,0.00,,,0.27,weatherlink.com 1.10,2013-03-12 11:42:00,
2013-03-12 07:58:00,38.1,36.0,29.91,NW,321,12.0,28.0,92,0.00,,,0.27,weatherlink.com 1.10,2013-03-12 11:58:00,
2013-03-12 08:12:00,38.1,36.0,29.93,NNW,347,12.0,25.0,91,0.00,,,0.27,weatherlink.com 1.10,2013-03-12 12:12:00,
2013-03-12 08:27:00,37.9,36.0,29.94,NNW,328,13.0,26.0,92,0.00,,,0.27,weatherlink.com 1.10,2013-03-12 12:27:00,
2013-03-12 08:42:00,37.8,36.0,29.95,NNW,333,9.0,21.0,92,0.00,,,0.27,weatherlink.com 1.10,2013-03-12 12:42:00,
2013-03-12 08:58:00,37.9,36.0,29.96,NNE,17,9.0,21.0,91,0.00,,,0.27,weatherlink.com 1.10,2013-03-12 12:58:00,
2013-03-12 09:13:00,38.1,36.0,29.96,North,350,9.0,21.0,91,0.00,,,0.27,weatherlink.com 1.10,2013-03-12 13:13:00,
2013-03-12 09:28:00,38.3,36.0,29.96,NW,311,10.0,20.0,90,0.00,,,0.27,weatherlink.com 1.10,2013-03-12 13:28:00,
2013-03-12 09:43:00,38.5,36.0,29.96,NNW,341,14.0,18.0,90,0.00,,,0.27,weatherlink.com 1.10,2013-03-12 13:43:00,
2013-03-12 09:58:00,38.7,36.0,29.96,NNW,341,11.0,18.0,89,0.00,,,0.27,weatherlink.com 1.10,2013-03-12 13:58:00,
2013-03-12 10:13:00,38.7,35.0,29.97,NNE,19,18.0,24.0,86,0.00,,,0.27,weatherlink.com 1.10,2013-03-12 14:13:00,
2013-03-12 10:28:00,39.0,35.0,29.98,NNW,345,18.0,26.0,86,0.00,,,0.27,weatherlink.com 1.10,2013-03-12 14:28:00,
2013-03-12 10:43:00,39.3,35.0,29.97,North,356,11.0,18.0,85,0.00,,,0.27,weatherlink.com 1.10,2013-03-12 14:43:00,
2013-03-12 10:58:00,40.2,35.0,29.97,NNE,17,13.0,22.0,83,0.00,,,0.27,weatherlink.com 1.10,2013-03-12 14:58:00,
2013-03-12 11:13:00,40.3,36.0,29.97,NNW,332,18.0,22.0,84,0.00,,,0.27,weatherlink.com 1.10,2013-03-12 15:13:00,
2013-03-12 11:28:00,40.1,35.0,29.97,NNE,12,10.0,21.0,83,0.00,,,0.27,weatherlink.com 1.10,2013-03-12 15:28:00,
2013-03-12 11:43:00,40.1,35.0,29.97,NNE,18,17.0,23.0,83,0.00,,,0.27,weatherlink.com 1.10,2013-03-12 15:43:00,
2013-03-12 11:58:00,40.2,35.0,29.98,North,1,11.0,21.0,83,0.00,,,0.27,weatherlink.com 1.10,2013-03-12 15:58:00,
2013-03-12 12:13:00,41.1,36.0,29.98,NNW,341,13.0,24.0,82,0.00,,,0.27,weatherlink.com 1.10,2013-03-12 16:13:00,
2013-03-12 12:28:00,41.0,36.0,29.98,North,355,18.0,24.0,81,0.00,,,0.27,weatherlink.com 1.10,2013-03-12 16:28:00,
2013-03-12 12:43:00,40.7,35.0,30.00,North,354,18.0,31.0,81,0.00,,,0.27,weatherlink.com 1.10,2013-03-12 16:43:00,
2013-03-12 12:58:00,41.1,35.0,30.00,North,355,15.0,25.0,80,0.00,,,0.27,weatherlink.com 1.10,2013-03-12 16:58:00,
2013-03-12 13:13:00,41.0,35.0,30.00,NNE,13,14.0,25.0,78,0.00,,,0.27,weatherlink.com 1.10,2013-03-12 17:13:00,
2013-03-12 13:28:00,41.2,35.0,30.00,NNE,15,16.0,24.0,79,0.00,,,0.27,weatherlink.com 1.10,2013-03-12 17:28:00,
2013-03-12 13:43:00,41.5,35.0,30.00,North,1,19.0,29.0,78,0.00,,,0.27,weatherlink.com 1.10,2013-03-12 17:43:00,
2013-03-12 13:58:00,41.7,35.0,30.00,NNE,13,24.0,29.0,77,0.00,,,0.27,weatherlink.com 1.10,2013-03-12 17:58:00,
2013-03-12 14:13:00,41.8,35.0,29.99,NNW,343,24.0,28.0,78,0.00,,,0.27,weatherlink.com 1.10,2013-03-12 18:13:00,
2013-03-12 14:28:00,42.1,35.0,29.99,NNW,341,15.0,28.0,76,0.00,,,0.27,weatherlink.com 1.10,2013-03-12 18:28:00,
2013-03-12 14:43:00,42.1,34.0,29.99,North,356,17.0,35.0,73,0.00,,,0.27,weatherlink.com 1.10,2013-03-12 18:43:00,
2013-03-12 14:58:00,42.1,34.0,30.00,NNW,330,13.0,32.0,73,0.00,,,0.27,weatherlink.com 1.10,2013-03-12 18:58:00,
2013-03-12 15:13:00,43.2,34.0,29.98,North,352,22.0,29.0,71,0.00,,,0.27,weatherlink.com 1.10,2013-03-12 19:13:00,
2013-03-12 15:28:00,44.0,34.0,29.98,NNW,328,8.0,28.0,69,0.00,,,0.27,weatherlink.com 1.10,2013-03-12 19:28:00,
2013-03-12 15:44:00,45.0,34.0,29.98,North,4,20.0,25.0,65,0.00,,,0.27,weatherlink.com 1.10,2013-03-12 19:44:00,
2013-03-12 15:58:00,45.2,34.0,29.98,NNE,19,21.0,25.0,66,0.00,,,0.27,weatherlink.com 1.10,2013-03-12 19:58:00,
2013-03-12 16:13:00,45.7,34.0,29.98,North,11,19.0,29.0,64,0.00,,,0.27,weatherlink.com 1.10,2013-03-12 20:13:00,
2013-03-12 16:28:00,46.5,35.0,29.98,North,11,12.0,22.0,64,0.00,,,0.27,weatherlink.com 1.10,2013-03-12 20:28:00,
2013-03-12 16:43:00,46.9,34.0,29.98,NNW,342,18.0,24.0,62,0.00,,,0.27,weatherlink.com 1.10,2013-03-12 20:43:00,
2013-03-12 16:58:00,47.6,34.0,29.98,NNE,12,21.0,23.0,59,0.00,,,0.27,weatherlink.com 1.10,2013-03-12 20:58:00,
2013-03-12 17:13:00,47.6,35.0,29.98,North,8,21.0,26.0,61,0.00,,,0.27,weatherlink.com 1.10,2013-03-12 21:13:00,
2013-03-12 17:28:00,47.8,33.0,29.98,NNE,13,17.0,24.0,58,0.00,,,0.27,weatherlink.com 1.10,2013-03-12 21:28:00,
2013-03-12 17:43:00,47.7,35.0,29.99,North,6,13.0,26.0,61,0.00,,,0.27,weatherlink.com 1.10,2013-03-12 21:43:00,
2013-03-12 17:58:00,47.8,35.0,29.99,NNW,342,15.0,27.0,61,0.00,,,0.27,weatherlink.com 1.10,2013-03-12 21:58:00,
2013-03-12 18:13:00,47.5,34.0,30.00,North,350,20.0,29.0,59,0.00,,,0.27,weatherlink.com 1.10,2013-03-12 22:13:00,
2013-03-12 18:28:00,47.2,34.0,30.00,NNW,328,11.0,24.0,60,0.00,,,0.27,weatherlink.com 1.10,2013-03-12 22:28:00,
2013-03-12 18:43:00,46.7,33.0,30.01,NW,321,15.0,24.0,60,0.00,,,0.27,weatherlink.com 1.10,2013-03-12 22:43:00,
2013-03-12 18:58:00,46.0,34.0,30.02,North,11,16.0,24.0,63,0.00,,,0.27,weatherlink.com 1.10,2013-03-12 22:58:00,
2013-03-12 19:13:00,45.4,33.0,30.02,North,8,20.0,22.0,63,0.00,,,0.27,weatherlink.com 1.10,2013-03-12 23:13:00,
2013-03-12 19:28:00,44.9,34.0,30.03,NNE,16,9.0,22.0,65,0.00,,,0.27,weatherlink.com 1.10,2013-03-12 23:28:00,
2013-03-12 19:43:00,44.4,34.0,30.04,North,357,14.0,19.0,66,0.00,,,0.27,weatherlink.com 1.10,2013-03-12 23:43:00,
2013-03-12 19:58:00,44.0,34.0,30.04,North,4,11.0,20.0,67,0.00,,,0.27,weatherlink.com 1.10,2013-03-12 23:58:00,
2013-03-12 20:13:00,43.5,33.0,30.05,North,8,8.0,17.0,67,0.00,,,0.27,weatherlink.com 1.10,2013-03-13 00:13:00,
2013-03-12 20:28:00,43.1,34.0,30.05,NNE,13,8.0,15.0,69,0.00,,,0.27,weatherlink.com 1.10,2013-03-13 00:28:00,
2013-03-12 20:43:00,42.6,33.0,30.06,NNE,28,6.0,11.0,70,0.00,,,0.27,weatherlink.com 1.10,2013-03-13 00:43:00,
2013-03-12 20:58:00,42.4,33.0,30.06,NNE,18,7.0,10.0,70,0.00,,,0.27,weatherlink.com 1.10,2013-03-13 00:58:00,
2013-03-12 21:13:00,42.1,34.0,30.07,North,350,6.0,7.0,72,0.00,,,0.27,weatherlink.com 1.10,2013-03-13 01:13:00,
2013-03-12 21:28:00,42.2,33.0,30.07,NNW,339,6.0,10.0,71,0.00,,,0.27,weatherlink.com 1.10,2013-03-13 01:28:00,
2013-03-12 21:43:00,42.2,33.0,30.08,NNE,19,6.0,8.0,71,0.00,,,0.27,weatherlink.com 1.10,2013-03-13 01:43:00,
2013-03-12 21:59:00,42.2,33.0,30.08,North,4,6.0,8.0,71,0.00,,,0.27,weatherlink.com 1.10,2013-03-13 01:59:00,
2013-03-12 22:14:00,42.3,34.0,30.08,NNW,332,3.0,4.0,72,0.00,,,0.27,weatherlink.com 1.10,2013-03-13 02:14:00,
2013-03-12 22:29:00,42.0,33.0,30.08,NE,43,0.0,6.0,71,0.00,,,0.27,weatherlink.com 1.10,2013-03-13 02:29:00,
2013-03-12 22:44:00,41.1,34.0,30.08,NNW,335,0.0,2.0,77,0.00,,,0.27,weatherlink.com 1.10,2013-03-13 02:44:00,
2013-03-12 22:59:00,39.6,35.0,30.08,North,355,0.0,2.0,82,0.00,,,0.27,weatherlink.com 1.10,2013-03-13 02:59:00,
2013-03-12 23:14:00,38.4,34.0,30.09,NNW,348,0.0,2.0,85,0.00,,,0.27,weatherlink.com 1.10,2013-03-13 03:14:00,
2013-03-12 23:30:00,36.9,33.0,30.09,NE,35,1.0,2.0,86,0.00,,,0.27,weatherlink.com 1.10,2013-03-13 03:30:00,
2013-03-12 23:44:00,36.5,33.0,30.09,NNW,343,2.0,4.0,87,0.00,,,0.27,weatherlink.com 1.10,2013-03-13 03:44:00,
2013-03-12 23:59:00,36.1,33.0,30.09,NW,319,0.0,2.0,88,0.00,,,0.27,weatherlink.com 1.10,2013-03-13 03:59:00,